Terminal Aerodrome Forecast
Issued by NWS

Home | Current Version | Previous Version | Text Only | Print | Product List | Glossary On
Versions: 1 2 3 4 5 6 7 8 9 10 11 12 13 14 15 16 17 18 19 20 21 22
000
FTUS42 KJAX 252055 AAB
TAFVQQ
TAF AMD
KVQQ 252055Z 2521/2618 26007KT P6SM SCT250
     FM252300 21006KT P6SM SCT250
     FM260600 21005KT P6SM OVC050
     FM260800 22009KT P6SM -SHRA OVC025
     FM261000 24009KT P6SM -SHRA OVC015
     FM261300 26014G22KT P6SM BKN035=

USA.gov is the U.S. government's official web portal to all federal, state and local government web resources and services.